This is the latest recevied weather packets stored in our database for station/object EA5HRE-13. If no packets are shown the sender has not sent any weather packets the latest 10 day(s).
| Time | Temp. | Humidity | Pressure | Rain* | Wind** | Luminosity | Snow |
|---|---|---|---|---|---|---|---|
| 1787920316 | 28.89° C | 32% | 1017.8 hPa | 0 mm | - | - | - |
| 1787919415 | 28.89° C | 33% | 1017.9 hPa | 0 mm | - | - | - |
| 1787918515 | 28.33° C | 33% | 1018 hPa | 0 mm | - | - | - |
| 1787917615 | 28.33° C | 33% | 1018.6 hPa | 0 mm | - | - | - |
| 1787916714 | 27.78° C | 33% | 1018.8 hPa | 0 mm | - | - | - |
| 1787915814 | 27.22° C | 34% | 1019 hPa | 0 mm | - | - | - |
| 1787914913 | 27.22° C | 35% | 1019.1 hPa | 0 mm | - | - | - |
| 1787914013 | 26.67° C | 36% | 1019.1 hPa | 0 mm | - | - | - |
| 1787913113 | 26.67° C | 36% | 1019.1 hPa | 0 mm | - | - | - |
| 1787912212 | 26.67° C | 37% | 1019.1 hPa | 0 mm | - | - | - |
| 1787910412 | 25° C | 45% | 1019.4 hPa | 0 mm | - | - | - |
| 1787909511 | 25° C | 44% | 1019.4 hPa | 0 mm | - | - | - |
| 1787908610 | 25° C | 43% | 1019.4 hPa | 0 mm | - | - | - |
| 1787907930 | 25° C | 43% | 1019.3 hPa | 0 mm | - | - | - |
| 1787907029 | 25° C | 43% | 1019.2 hPa | 0 mm | - | - | - |
| 1787906128 | 25° C | 43% | 1019 hPa | 0 mm | - | - | - |
| 1787905228 | 25° C | 43% | 1018.8 hPa | 0 mm | - | - | - |
| 1787904328 | 25° C | 44% | 1018.7 hPa | 0 mm | - | - | - |
| 1787903427 | 25° C | 45% | 1018.6 hPa | 0 mm | - | - | - |
| 1787902527 | 24.44° C | 46% | 1018.6 hPa | 0 mm | - | - | - |
| 1787901626 | 24.44° C | 48% | 1018.5 hPa | 0 mm | - | - | - |
| 1787900726 | 23.89° C | 49% | 1018.3 hPa | 0 mm | - | - | - |
| 1787899826 | 23.89° C | 50% | 1017.9 hPa | 0 mm | - | - | - |
| 1787898925 | 23.89° C | 51% | 1017.5 hPa | 0 mm | - | - | - |
| 1787898025 | 23.33° C | 52% | 1017 hPa | 0 mm | - | - | - |
* Rain latest hour (hover to see other rain measurements)
** Current wind speed in m/s (hover to see current wind gust speed)